Schneifelwetter: Wetterstation Hallschlag, 537 m . NN
Wetterdaten: Freitag, 03.10.2008
Datum Zeit Temp. A. Temp. 2 Feuchte A. Luftdruck Regen Wind Richtung Richtung Sonnenschein Helligkeit T Regen Taupunkt Windchill
03.10.2008 00:10 4,2 C 4,1 C 96 % 1004 hPa 0,0 l/m 11,3 km/h (2 Bft) S22.5 185 0 min 0 lux 0,00 min 3,6 C 0,3 C
03.10.2008 00:25 4,1 C 4,1 C 96 % 1004 hPa 0,0 l/m 15,0 km/h (3 Bft) SW22.5 225 0 min 0 lux 0,00 min 3,5 C -2,0 C
03.10.2008 00:40 3,9 C 3,9 C 96 % 1004 hPa 0,0 l/m 15,6 km/h (3 Bft) SW45 220 0 min 0 lux 0,00 min 3,3 C -2,6 C
03.10.2008 00:55 3,9 C 3,9 C 96 % 1004 hPa 0,0 l/m 14,3 km/h (3 Bft) W-SW22.5 255 0 min 0 lux 0,00 min 3,3 C -1,9 C
03.10.2008 01:10 3,9 C 3,8 C 96 % 1005 hPa 0,0 l/m 12,7 km/h (3 Bft) W-SW45 240 0 min 0 lux 0,00 min 3,3 C -0,9 C
03.10.2008 01:25 3,9 C 3,8 C 96 % 1004 hPa 0,0 l/m 20,0 km/h (4 Bft) W22.5 265 0 min 0 lux 0,00 min 3,3 C -4,6 C
03.10.2008 01:40 3,9 C 3,8 C 96 % 1005 hPa 0,0 l/m 24,0 km/h (4 Bft) W22.5 260 0 min 0 lux 0,00 min 3,3 C -6,1 C
03.10.2008 01:55 3,8 C 3,8 C 96 % 1005 hPa 0,0 l/m 13,9 km/h (3 Bft) W22.5 265 0 min 0 lux 0,00 min 3,2 C -1,8 C
03.10.2008 02:10 3,8 C 3,8 C 96 % 1005 hPa 0,0 l/m 16,8 km/h (3 Bft) W-SW22.5 250 0 min 0 lux 0,00 min 3,2 C -3,3 C
03.10.2008 02:25 3,8 C 3,8 C 96 % 1005 hPa 0,0 l/m 20,6 km/h (4 Bft) W-SW45 255 0 min 0 lux 0,00 min 3,2 C -5,0 C
03.10.2008 02:40 3,8 C 3,7 C 96 % 1005 hPa 0,0 l/m 19,3 km/h (3 Bft) W-SW22.5 255 0 min 0 lux 0,00 min 3,2 C -4,4 C
03.10.2008 02:55 3,7 C 3,7 C 96 % 1005 hPa 0,0 l/m 15,0 km/h (3 Bft) W-SW22.5 245 0 min 0 lux 0,00 min 3,1 C -2,5 C
03.10.2008 03:10 3,7 C 3,7 C 96 % 1005 hPa 0,0 l/m 19,3 km/h (3 Bft) W-SW22.5 250 0 min 0 lux 0,00 min 3,1 C -4,6 C
03.10.2008 03:25 3,7 C 3,6 C 96 % 1005 hPa 0,0 l/m 23,8 km/h (4 Bft) W22.5 260 0 min 0 lux 0,00 min 3,1 C -6,3 C
03.10.2008 03:40 3,5 C 3,3 C 96 % 1005 hPa 0,0 l/m 18,0 km/h (3 Bft) W-SW22.5 255 0 min 0 lux 0,00 min 2,9 C -4,2 C
03.10.2008 03:55 3,2 C 3,0 C 95 % 1005 hPa 0,0 l/m 15,1 km/h (3 Bft) W-SW22.5 255 0 min 0 lux 0,00 min 2,5 C -3,2 C
03.10.2008 04:10 3,0 C 2,5 C 95 % 1004 hPa 0,0 l/m 14,5 km/h (3 Bft) W-SW45 250 0 min 0 lux 0,00 min 2,3 C -3,1 C
03.10.2008 04:25 2,7 C 2,3 C 95 % 1004 hPa 0,0 l/m 16,7 km/h (3 Bft) W-SW22.5 245 0 min 0 lux 0,00 min 2,0 C -4,6 C
03.10.2008 04:40 2,7 C 2,6 C 96 % 1005 hPa 0,0 l/m 11,0 km/h (2 Bft) SW22.5 215 0 min 0 lux 0,00 min 2,1 C -1,2 C
03.10.2008 04:55 3,0 C 2,7 C 96 % 1005 hPa 0,0 l/m 13,8 km/h (3 Bft) SW22.5 230 0 min 0 lux 0,00 min 2,4 C -2,7 C
03.10.2008 05:10 2,9 C 2,6 C 96 % 1005 hPa 0,0 l/m 12,1 km/h (2 Bft) SW22.5 225 0 min 0 lux 0,00 min 2,3 C -1,7 C
03.10.2008 05:25 3,0 C 2,8 C 96 % 1005 hPa 0,0 l/m 11,1 km/h (2 Bft) SW 230 0 min 0 lux 0,00 min 2,4 C -0,9 C
03.10.2008 05:40 3,1 C 3,0 C 97 % 1005 hPa 0,0 l/m 20,0 km/h (4 Bft) W-SW22.5 245 0 min 0 lux 0,00 min 2,7 C -5,6 C
03.10.2008 05:55 3,1 C 3,1 C 96 % 1005 hPa 0,0 l/m 21,3 km/h (4 Bft) W-SW22.5 250 0 min 0 lux 0,00 min 2,5 C -6,2 C
03.10.2008 06:10 3,2 C 3,2 C 97 % 1005 hPa 0,0 l/m 17,1 km/h (3 Bft) W-SW22.5 245 0 min 0 lux 0,00 min 2,8 C -4,2 C
03.10.2008 06:25 3,3 C 3,3 C 96 % 1005 hPa 0,0 l/m 18,7 km/h (3 Bft) W-SW22.5 250 0 min 0 lux 0,00 min 2,7 C -4,8 C
03.10.2008 06:40 3,3 C 3,3 C 96 % 1005 hPa 0,0 l/m 19,0 km/h (3 Bft) W-SW45 240 0 min 0 lux 0,00 min 2,7 C -4,9 C
03.10.2008 06:55 3,3 C 3,3 C 96 % 1005 hPa 0,0 l/m 15,3 km/h (3 Bft) SW45 230 0 min 0 lux 0,00 min 2,7 C -3,1 C
03.10.2008 07:10 3,2 C 3,2 C 96 % 1005 hPa 0,0 l/m 15,7 km/h (3 Bft) SW45 225 0 min 0 lux 0,00 min 2,6 C -3,5 C
03.10.2008 07:25 3,3 C 3,3 C 96 % 1005 hPa 0,0 l/m 15,5 km/h (3 Bft) SW45 215 0 min 136 lux 0,00 min 2,7 C -3,3 C
03.10.2008 07:40 3,2 C 3,2 C 96 % 1005 hPa 0,0 l/m 20,8 km/h (4 Bft) SW45 225 0 min 255 lux 0,00 min 2,6 C -5,8 C
03.10.2008 07:55 3,2 C 3,2 C 96 % 1005 hPa 0,0 l/m 24,5 km/h (4 Bft) W-SW45 245 0 min 811 lux 0,00 min 2,6 C -7,2 C
03.10.2008 08:11 3,4 C 3,3 C 96 % 1005 hPa 0,0 l/m 23,4 km/h (4 Bft) SW45 220 0 min 1,82 klux 0,00 min 2,8 C -6,6 C
03.10.2008 08:26 3,5 C 3,5 C 96 % 1005 hPa 0,0 l/m 22,7 km/h (4 Bft) SW45 215 0 min 2,86 klux 0,00 min 2,9 C -6,2 C
03.10.2008 08:41 3,6 C 3,7 C 95 % 1005 hPa 0,0 l/m 23,6 km/h (4 Bft) W-SW45 245 0 min 6,27 klux 0,00 min 2,9 C -6,4 C
03.10.2008 08:56 3,9 C 4,0 C 95 % 1005 hPa 0,0 l/m 17,5 km/h (3 Bft) S-SW45 200 0 min 6,46 klux 0,00 min 3,2 C -3,5 C
03.10.2008 09:11 4,2 C 4,3 C 95 % 1005 hPa 0,0 l/m 17,3 km/h (3 Bft) S45 185 0 min 9,7 klux 0,00 min 3,5 C -3,0 C
03.10.2008 09:26 4,5 C 4,8 C 94 % 1005 hPa 0,0 l/m 13,1 km/h (3 Bft) S-SW45 210 0 min 9,5 klux 0,00 min 3,6 C -0,5 C
03.10.2008 09:41 4,7 C 4,9 C 93 % 1006 hPa 0,0 l/m 23,3 km/h (4 Bft) SW67.5 225 0 min 7,66 klux 0,00 min 3,7 C -4,8 C
03.10.2008 09:56 4,9 C 5,1 C 93 % 1006 hPa 0,0 l/m 13,4 km/h (3 Bft) S22.5 185 0 min 9,8 klux 0,00 min 3,9 C -0,2 C
03.10.2008 10:11 5,2 C 5,4 C 93 % 1006 hPa 0,0 l/m 16,3 km/h (3 Bft) S-SW45 210 0 min 10,5 klux 0,00 min 4,2 C -1,3 C
03.10.2008 10:26 5,5 C 5,7 C 92 % 1006 hPa 0,0 l/m 16,8 km/h (3 Bft) SW45 225 0 min 14,2 klux 0,00 min 4,3 C -1,2 C
03.10.2008 10:41 6,0 C 6,3 C 92 % 1006 hPa 0,0 l/m 16,8 km/h (3 Bft) SW22.5 220 0 min 25,8 klux 0,00 min 4,8 C -0,6 C
03.10.2008 10:56 6,5 C 6,8 C 89 % 1006 hPa 0,0 l/m 23,4 km/h (4 Bft) S-SW45 210 0 min 21,3 klux 0,00 min 4,8 C -2,4 C
03.10.2008 11:16 6,9 C 7,3 C 89 % 1006 hPa 0,0 l/m 20,4 km/h (4 Bft) SW45 230 20 min 74,4 klux 0,00 min 5,2 C -0,9 C
03.10.2008 11:31 7,6 C 8,1 C 86 % 1006 hPa 0,0 l/m 22,8 km/h (4 Bft) S-SW67.5 195 0 min 32,2 klux 0,00 min 5,4 C -0,8 C
03.10.2008 11:46 7,4 C 8,0 C 85 % 1006 hPa 0,0 l/m 22,3 km/h (4 Bft) S-SW22.5 200 0 min 23,9 klux 0,00 min 5,0 C -0,9 C
03.10.2008 12:01 7,2 C 7,6 C 85 % 1006 hPa 0,0 l/m 17,8 km/h (3 Bft) SW45 225 0 min 18,9 klux 0,00 min 4,9 C 0,5 C
03.10.2008 12:16 7,5 C 8,0 C 86 % 1006 hPa 0,0 l/m 21,9 km/h (4 Bft) SW45 220 0 min 36,6 klux 0,00 min 5,3 C -0,6 C
03.10.2008 12:31 8,2 C 9,2 C 83 % 1006 hPa 0,0 l/m 19,0 km/h (3 Bft) S-SW67.5 210 0 min 52,0 klux 0,00 min 5,5 C 1,3 C
03.10.2008 12:46 8,4 C 9,4 C 81 % 1006 hPa 0,0 l/m 23,1 km/h (4 Bft) SW45 235 0 min 45,0 klux 0,00 min 5,3 C 0,2 C
03.10.2008 13:01 8,8 C 9,8 C 82 % 1006 hPa 0,0 l/m 21,0 km/h (4 Bft) SW45 230 0 min 55,0 klux 0,00 min 5,9 C 1,4 C
03.10.2008 13:16 8,2 C 8,8 C 80 % 1006 hPa 0,0 l/m 21,7 km/h (4 Bft) S-SW45 200 0 min 26,9 klux 0,00 min 5,0 C 0,4 C
03.10.2008 13:31 7,4 C 7,6 C 83 % 1006 hPa 0,0 l/m 15,3 km/h (3 Bft) S-SW45 195 0 min 15,1 klux 0,00 min 4,7 C 1,8 C
03.10.2008 13:46 7,6 C 8,5 C 85 % 1006 hPa 0,0 l/m 14,3 km/h (3 Bft) S45 185 0 min 49,5 klux 0,00 min 5,2 C 2,6 C
03.10.2008 14:01 8,4 C 9,3 C 84 % 1006 hPa 0,0 l/m 18,0 km/h (3 Bft) SW45 220 0 min 46,6 klux 0,00 min 5,9 C 2,0 C
03.10.2008 14:16 8,2 C 8,4 C 82 % 1006 hPa 0,0 l/m 27,2 km/h (4 Bft) SW45 235 0 min 28,8 klux 0,00 min 5,3 C -1,2 C
03.10.2008 14:31 7,7 C 7,7 C 83 % 1006 hPa 0,0 l/m 23,5 km/h (4 Bft) S-SW45 195 0 min 25,4 klux 0,00 min 5,0 C -0,8 C
03.10.2008 14:46 7,5 C 7,6 C 84 % 1006 hPa 0,0 l/m 21,3 km/h (4 Bft) S-SW45 205 0 min 28,8 klux 0,00 min 5,0 C -0,4 C
03.10.2008 15:01 6,7 C 6,6 C 86 % 1006 hPa 0,3 l/m 25,0 km/h (4 Bft) SW45 220 0 min 22,4 klux 15,00 min 4,5 C -2,6 C
03.10.2008 15:16 7,0 C 6,6 C 88 % 1006 hPa 0,0 l/m 26,6 km/h (4 Bft) W-SW45 245 0 min 25,9 klux 0,00 min 5,2 C -2,7 C
03.10.2008 15:31 6,8 C 6,3 C 89 % 1006 hPa 0,3 l/m 24,1 km/h (4 Bft) W-SW45 250 0 min 19,2 klux 15,00 min 5,1 C -2,2 C
03.10.2008 15:46 7,1 C 6,5 C 88 % 1006 hPa 0,0 l/m 26,4 km/h (4 Bft) W-SW45 240 0 min 32,7 klux 0,00 min 5,2 C -2,5 C
03.10.2008 16:01 6,8 C 6,7 C 88 % 1006 hPa 0,0 l/m 23,1 km/h (4 Bft) W-SW45 240 0 min 45,9 klux 0,00 min 5,0 C -1,9 C
03.10.2008 16:16 7,1 C 7,3 C 87 % 1006 hPa 0,0 l/m 22,5 km/h (4 Bft) SW45 215 0 min 31,0 klux 0,00 min 5,1 C -1,3 C
03.10.2008 16:31 7,0 C 7,6 C 87 % 1006 hPa 0,0 l/m 33,9 km/h (5 Bft) SW45 235 0 min 24,3 klux 0,00 min 5,0 C -4,4 C
03.10.2008 16:46 7,2 C 7,8 C 87 % 1006 hPa 0,0 l/m 21,9 km/h (4 Bft) SW45 235 0 min 25,6 klux 0,00 min 5,2 C -1,0 C
03.10.2008 17:01 7,1 C 7,3 C 85 % 1006 hPa 0,0 l/m 29,3 km/h (5 Bft) SW45 230 0 min 13,2 klux 0,00 min 4,8 C -3,3 C
03.10.2008 17:16 7,0 C 6,9 C 86 % 1006 hPa 0,0 l/m 20,8 km/h (4 Bft) W-SW45 255 0 min 16,1 klux 0,00 min 4,8 C -0,9 C
03.10.2008 17:31 6,5 C 6,1 C 88 % 1006 hPa 0,0 l/m 18,7 km/h (3 Bft) W-SW45 240 0 min 7,37 klux 0,00 min 4,7 C -0,7 C
03.10.2008 17:46 6,3 C 6,0 C 89 % 1006 hPa 0,0 l/m 21,8 km/h (4 Bft) SW45 235 0 min 14,0 klux 0,00 min 4,6 C -2,1 C
03.10.2008 18:01 5,9 C 5,7 C 90 % 1006 hPa 0,0 l/m 27,5 km/h (4 Bft) W-SW45 240 0 min 9,3 klux 0,00 min 4,4 C -4,5 C
03.10.2008 18:11 5,7 C 5,5 C 90 % 1006 hPa 0,0 l/m 30,0 km/h (5 Bft) W-SW22.5 255 0 min 4,78 klux 0,00 min 4,2 C -5,4 C
03.10.2008 18:26 5,6 C 5,4 C 91 % 1006 hPa 0,0 l/m 21,7 km/h (4 Bft) W-SW45 240 0 min 3,51 klux 0,00 min 4,2 C -3,0 C
03.10.2008 18:40 5,4 C 5,2 C 91 % 1006 hPa 0,0 l/m 21,3 km/h (4 Bft) W-SW45 255 0 min 2,59 klux 0,00 min 4,1 C -3,1 C
03.10.2008 18:55 4,9 C 4,8 C 91 % 1007 hPa 0,0 l/m 22,7 km/h (4 Bft) W-SW45 240 0 min 1,99 klux 0,00 min 3,6 C -4,3 C
03.10.2008 19:10 4,8 C 4,8 C 92 % 1007 hPa 0,0 l/m 15,3 km/h (3 Bft) W-SW22.5 250 0 min 280 lux 0,00 min 3,6 C -1,3 C
03.10.2008 19:25 4,7 C 4,7 C 93 % 1007 hPa 0,0 l/m 17,3 km/h (3 Bft) W-SW22.5 240 0 min 73 lux 0,00 min 3,7 C -2,4 C
03.10.2008 19:40 4,7 C 4,7 C 93 % 1007 hPa 0,0 l/m 17,4 km/h (3 Bft) SW45 225 0 min 7 lux 0,00 min 3,7 C -2,5 C
03.10.2008 19:55 4,6 C 4,5 C 93 % 1007 hPa 0,0 l/m 19,0 km/h (3 Bft) SW45 215 0 min 0 lux 0,00 min 3,6 C -3,3 C
03.10.2008 20:10 4,6 C 4,4 C 93 % 1007 hPa 0,0 l/m 18,0 km/h (3 Bft) W-SW67.5 250 0 min 0 lux 0,00 min 3,6 C -2,8 C
03.10.2008 20:25 4,4 C 4,2 C 93 % 1007 hPa 0,0 l/m 16,0 km/h (3 Bft) W22.5 260 0 min 0 lux 0,00 min 3,4 C -2,2 C
03.10.2008 20:40 4,4 C 4,3 C 94 % 1007 hPa 0,0 l/m 16,1 km/h (3 Bft) W-SW22.5 250 0 min 0 lux 0,00 min 3,5 C -2,2 C
03.10.2008 20:55 4,5 C 4,3 C 94 % 1007 hPa 0,0 l/m 11,4 km/h (2 Bft) W22.5 260 0 min 0 lux 0,00 min 3,6 C 0,6 C
03.10.2008 21:10 4,5 C 4,4 C 94 % 1007 hPa 0,0 l/m 10,5 km/h (2 Bft) W-SW22.5 245 0 min 0 lux 0,00 min 3,6 C 1,2 C
03.10.2008 21:25 4,6 C 4,5 C 95 % 1007 hPa 0,0 l/m 13,3 km/h (3 Bft) W-SW22.5 245 0 min 0 lux 0,00 min 3,9 C -0,5 C
03.10.2008 21:40 4,6 C 4,5 C 95 % 1007 hPa 0,0 l/m 11,0 km/h (2 Bft) W-SW22.5 240 0 min 0 lux 0,00 min 3,9 C 0,9 C
03.10.2008 21:55 4,7 C 4,5 C 95 % 1008 hPa 0,0 l/m 14,6 km/h (3 Bft) W-SW22.5 245 0 min 0 lux 0,00 min 4,0 C -1,1 C
03.10.2008 22:10 4,7 C 4,5 C 95 % 1008 hPa 0,0 l/m 15,8 km/h (3 Bft) W22.5 260 0 min 0 lux 0,00 min 4,0 C -1,7 C
03.10.2008 22:25 4,7 C 4,4 C 95 % 1008 hPa 0,0 l/m 17,8 km/h (3 Bft) W22.5 260 0 min 0 lux 0,00 min 4,0 C -2,6 C
03.10.2008 22:40 4,6 C 4,3 C 95 % 1008 hPa 0,0 l/m 12,4 km/h (3 Bft) W-SW22.5 250 0 min 0 lux 0,00 min 3,9 C 0,1 C
03.10.2008 22:55 4,5 C 4,2 C 95 % 1008 hPa 0,0 l/m 11,5 km/h (2 Bft) W 260 0 min 0 lux 0,00 min 3,8 C 0,5 C
03.10.2008 23:10 4,4 C 4,2 C 95 % 1008 hPa 0,3 l/m 7,4 km/h (2 Bft) W 260 0 min 0 lux 15,00 min 3,7 C 3,5 C
03.10.2008 23:25 4,4 C 4,2 C 95 % 1008 hPa 0,0 l/m 0,4 km/h (0 Bft) W 260 0 min 0 lux 0,00 min 3,7 C 4,4 C
03.10.2008 23:40 4,4 C 4,2 C 95 % 1009 hPa 0,0 l/m 0,6 km/h (0 Bft) W 260 0 min 0 lux 0,00 min 3,7 C 4,4 C
03.10.2008 23:55 4,4 C 4,2 C 95 % 1009 hPa 0,0 l/m 0,7 km/h (0 Bft) W 260 0 min 0 lux 0,00 min 3,7 C 4,4 C
_ Min-Zeit 04:25 04:25 13:16 00:10 - 23:25 - - - - - 04:25 07:55
Minimum _ 2,7 C 2,3 C 80 % 1004 hPa - 0,4 km/h (0 Bft) - - - - - 2,0 C -7,2 C
_ Max-Zeit 13:01 13:01 05:40 23:40 15:01 16:31 - - 11:16 11:16 15:01 13:01 23:25
Maximum _ 8,8 C 9,8 C 97 % 1009 hPa 0,3 l/m 33,9 km/h
SW (5 Bft)
- - 20 min 74,4 klux 15,00 min 5,9 C 4,4 C
Durchschnitt _ 5,0 C 5,1 C 92 % 1006 hPa #0,9 l/m 18,2 km/h (3 Bft) W-SW - #20 min. 10,3 klux #45 min. 3,8 C -2,0 C